This demonstration page uses our WeatherBlox Daily Observations layout. Learn more.

Left ArrowRight Arrow

Hourly Observations for February 2, 2015

Temp ( °F °C ) Dew Point ( °F °C ) Humidity (%) Winds ( mph kmh ) Pressure ( in mb ) Visibility ( mi km ) Precip ( " mm )
12:51 am 00:51 Clear 43 6.1 41 5 93 93 SSE 3 6 30.11 1020 10 16 0.00 0.00
1:51 am 01:51 Clear 43 6.1 40 4.4 89 89 SE 8 13 30.11 1020 10 16 0.00 0.00
2:51 am 02:51 Clear 41 5 39 3.9 93 93 Calm 30.12 1020 10 16 0.00 0.00
3:51 am 03:51 Clear 40 4.4 38 3.3 93 93 Calm 30.11 1020 10 16 0.00 0.00
4:51 am 04:51 Clear 41 5 38 3.3 89 89 SE 7 11 30.11 1020 10 16 0.00 0.00
5:51 am 05:51 Clear 42 5.6 39 3.9 89 89 SSE 14 22 30.12 1020 10 16 0.00 0.00
6:51 am 06:51 Clear 45 7.2 35 1.7 68 68 ESE 10 17 30.13 1020 10 16 0.00 0.00
7:51 am 07:51 Sunny 42 5.6 37 2.8 82 82 NW 3 6 30.16 1021 10 16 0.00 0.00
8:51 am 08:51 Sunny 45 7.2 39 3.9 80 80 Calm 30.17 1022 10 16 0.00 0.00
9:51 am 09:51 Sunny 53 11.7 37 2.8 55 55 SE 9 15 30.16 1021 10 16 0.00 0.00
10:51 am 10:51 Sunny 57 13.9 38 3.3 49 49 ESE 12 19 30.13 1020 10 16 0.00 0.00
11:51 am 11:51 Sunny 58 14.4 42 5.6 56 56 VRB 5 7 30.11 1020 10 16 0.00 0.00
12:51 pm 12:51 Sunny 61 16.1 44 6.7 54 54 SSE 7 11 30.07 1018 10 16 0.00 0.00
1:51 pm 13:51 Sunny 64 17.8 43 6.1 46 46 NNE 3 6 30.02 1017 10 16 0.00 0.00
2:51 pm 14:51 Sunny 64 17.8 43 6.1 46 46 VRB 3 6 30.00 1016 10 16 0.00 0.00
3:51 pm 15:51 Sunny 66 18.9 41 5 40 40 Calm 29.98 1015 10 16 0.00 0.00
4:51 pm 16:51 Sunny 65 18.3 40 4.4 40 40 WNW 3 6 29.97 1015 10 16 0.00 0.00
5:51 pm 17:51 Sunny 59 15 47 8.3 64 64 W 5 7 29.98 1015 10 16 0.00 0.00
6:51 pm 18:51 Clear 55 12.8 48 8.9 77 77 N 6 9 29.99 1016 10 16 0.00 0.00
7:51 pm 19:51 Clear 52 11.1 46 7.8 80 80 NNE 6 9 30.01 1016 10 16 0.00 0.00
8:51 pm 20:51 Clear 52 11.1 45 7.2 77 77 Calm 30.02 1017 10 16 0.00 0.00
9:51 pm 21:51 Clear 49 9.4 44 6.7 83 83 E 5 7 30.03 1017 10 16 0.00 0.00
10:51 pm 22:51 Clear 47 8.3 44 6.7 90 90 Calm 30.04 1017 10 16 0.00 0.00
11:51 pm 23:51 Clear 46 7.8 43 6.1 89 89 Calm 30.05 1018 10 16 0.00 0.00

Powered by AerisWeather